Reading, PA

4:29 PM EDT on July 23, 2016 (GMT -0400)
Reading Regional-Spaatz

Weather History for KRDG - November, 2013

Change the Weather History Date:

Wednesday, November 13, 2013

  Actual Average Record
Temperature  
Mean Temperature 34 °F 45 °F  
Max Temperature 41 °F 55 °F 74 °F (1902)
Min Temperature 26 °F 36 °F 21 °F (1976)
Degree Days  
Heating Degree Days 31 20  
Month to date heating degree days 248 234  
Since 1 July heating degree days 613 672  
Cooling Degree Days 0 0  
Month to date cooling degree days 0 0  
Year to date cooling degree days 1124 896  
Moisture  
Dew Point 15 °F    
Average Humidity 49    
Maximum Humidity 63    
Minimum Humidity 34    
Precipitation  
Precipitation 0.00 in 0.10 in 1.84 in (1975)
Month to date precipitation 0.38 1.41  
Year to date precipitation 35.60 37.93  
Sea Level Pressure  
Sea Level Pressure 30.40 in    
Wind  
Wind Speed 9 mph (NW)    
Max Wind Speed 21 mph    
Max Gust Speed 29 mph    
Visibility 10 miles    
Events      
T = Trace of Precipitation, MM = Missing Value Source: NWS Daily Summary

Daily Weather History Graph

Daily Weather History Graph

Search for Another Location

Airport or City:

Trip Planner

Search our weather history database for the weather conditions in past years. The results will help you decide how hot, cold, wet, or windy it might be!

Date:

Astronomy

Nov. 13, 2013 Rise Set
Actual Time 6:47 AM EST 4:48 PM EST
Civil Twilight 6:18 AM EST 5:17 PM EST
Nautical Twilight 5:45 AM EST 5:49 PM EST
Astronomical Twilight 5:13 AM EST 6:22 PM EST
Moon 2:34 PM EST (11/13) 2:37 AM EST (11/13)
Length of Visible Light 10h 58m
Length of Day
10h 00m
Waxing Gibbous, 84% of the Moon is Illuminated
Nov 13
Waxing Gibbous
Nov 17
Full
Nov 25
Last Quarter
Dec 2
New
Dec 9
First Quarter

Hourly Weather History & Observations

Time (EST) Temp. Windchill Dew Point Humidity Pressure Visibility Wind Dir Wind Speed Gust Speed Precip Events Conditions
12:54 AM 30.0 °F 20.0 °F 15.1 °F 54% 30.38 in 10.0 mi NNW 12.7 mph - N/A   Clear
1:54 AM 30.0 °F 20.0 °F 12.9 °F 49% 30.37 in 10.0 mi NNW 12.7 mph - N/A   Clear
2:54 AM 30.0 °F 21.7 °F 12.0 °F 47% 30.37 in 10.0 mi NNW 9.2 mph 23.0 mph N/A   Clear
3:54 AM 28.9 °F 18.6 °F 10.0 °F 45% 30.38 in 10.0 mi NNW 12.7 mph - N/A   Clear
4:54 AM 28.9 °F 17.7 °F 9.0 °F 43% 30.39 in 10.0 mi NNW 15.0 mph 21.9 mph N/A   Clear
5:54 AM 27.0 °F 19.5 °F 9.0 °F 47% 30.41 in 10.0 mi NNW 6.9 mph - N/A   Clear
6:54 AM 27.0 °F 18.0 °F 10.0 °F 49% 30.43 in 10.0 mi NW 9.2 mph - N/A   Clear
7:54 AM 30.0 °F 21.7 °F 10.9 °F 45% 30.44 in 10.0 mi NNW 9.2 mph - N/A   Clear
8:54 AM 32.0 °F 22.1 °F 10.9 °F 42% 30.45 in 10.0 mi North 13.8 mph 21.9 mph N/A   Clear
9:54 AM 35.1 °F 27.9 °F 12.9 °F 40% 30.46 in 10.0 mi NW 9.2 mph 17.3 mph N/A   Clear
10:54 AM 36.0 °F 28.0 °F 12.9 °F 39% 30.44 in 10.0 mi North 11.5 mph - N/A   Clear
11:54 AM 37.9 °F 28.9 °F 14.0 °F 38% 30.42 in 10.0 mi NW 16.1 mph 25.3 mph N/A   Clear
12:54 PM 39.9 °F 31.4 °F 14.0 °F 35% 30.40 in 10.0 mi NNW 16.1 mph 23.0 mph N/A   Clear
1:54 PM 39.9 °F 32.1 °F 15.1 °F 36% 30.39 in 10.0 mi NNW 13.8 mph 19.6 mph N/A   Clear
2:54 PM 41.0 °F 33.9 °F 17.1 °F 38% 30.38 in 10.0 mi NW 12.7 mph - N/A   Partly Cloudy
3:54 PM 39.0 °F 31.8 °F 17.1 °F 41% 30.38 in 10.0 mi WNW 11.5 mph - N/A   Clear
4:54 PM 36.0 °F 31.1 °F 18.0 °F 48% 30.38 in 10.0 mi WNW 5.8 mph - N/A   Clear
5:54 PM 36.0 °F 33.3 °F 18.0 °F 48% 30.39 in 10.0 mi WSW 3.5 mph - N/A   Clear
6:54 PM 33.1 °F 30.0 °F 19.0 °F 56% 30.40 in 10.0 mi WSW 3.5 mph - N/A   Clear
7:54 PM 30.0 °F - 19.9 °F 66% 30.38 in 10.0 mi Calm Calm - N/A   Clear
8:54 PM 30.0 °F - 19.0 °F 64% 30.38 in 10.0 mi Calm Calm - N/A   Clear
9:54 PM 30.9 °F - 19.0 °F 61% 30.37 in 10.0 mi Calm Calm - N/A   Clear
10:54 PM 30.9 °F 27.5 °F 19.0 °F 61% 30.36 in 10.0 mi SSE 3.5 mph - N/A   Clear
11:54 PM 30.9 °F - 18.0 °F 59% 30.34 in 10.0 mi Calm Calm - N/A   Clear